CAPE
0 0 2 8 10 14 5 7 6 0 0 0 0 0 0 0 1 6 8 0 0 0 0 0 0 0 0 0 0 0 0 0 0 0 0 0 0 0 0 0 0 0 0 0 0
0 0 0 6 13 8 9 14 15 0 0 0 0 0 0 0 0 1 0 0 0 0 0 0 0 3 0 0 0 0 0 0 0 0 0 0 0 0 0 0 0 0 0 0 0
0 0 0 0 7 6 0 14 14 12 0 0 0 0 0 0 0 0 0 0 0 0 0 0 0 0 0 0 0 0 0 0 0 0 0 0 0 0 0 0 0 0 0 0 0
0 0 0 0 4 3 10 24 20 13 0 0 0 0 0 2 0 0 0 0 0 0 0 0 0 0 1 0 0 0 0 0 0 0 0 0 0 0 0 0 0 0 0 0 0
5 0 0 2 0 2 9 16 20 13 0 0 0 0 2 0 0 0 0 1 13 0 0 0 0 0 0 0 0 0 0 0 0 0 0 0 0 0 0 0 0 0 0 0 0
19 15 9 4 1 0 8 5 14 12 9 0 0 8 0 0 0 0 0 3 32 0 0 0 1 0 2 3 3 0 0 0 0 0 0 0 0 0 0 0 0 0 0 0 0
26 21 18 15 12 0 0 2 16 20 8 0 28 0 0 0 0 0 0 3 45 0 0 3 1 23 7 4 0 6 21 5 0 0 0 0 0 0 0 0 0 0 0 0 0
37 33 25 22 10 4 0 0 11 30 7 11 44 4 0 0 0 0 0 6 36 10 9 14 23 45 23 0 1 5 19 1 0 0 0 0 0 0 0 0 0 0 0 0 0
53 29 45 20 16 15 0 0 26 17 5 25 20 11 0 2 0 0 0 0 37 30 42 57 33 44 21 32 9 5 0 0 0 0 0 0 0 0 0 0 0 0 0 0 0
80 34 46 29 9 26 0 50 47 33 34 23 17 11 0 0 0 0 0 0 12 44 69 36 51 39 20 20 4 3 0 0 2 0 0 0 0 0 0 0 0 0 0 0 0
142 35 44 42 9 35 10 31 37 27 16 0 0 0 0 0 2 0 1 0 10 23 33 11 2 5 3 2 1 12 0 0 0 0 0 0 0 0 0 0 0 0 0 0 0
171 35 28 39 17 34 17 0 0 0 9 0 0 0 0 0 0 8 17 12 15 3 7 15 0 0 4 29 21 3 3 1 2 0 0 0 0 0 0 0 0 0 0 0 0
134 35 48 27 21 31 0 0 0 0 0 0 0 0 0 0 0 0 28 18 7 5 2 1 6 0 1 1 8 8 2 17 14 0 0 0 0 0 0 0 0 0 0 0 0
0 12 56 76 26 15 0 0 0 0 0 0 0 0 0 3 0 0 0 2 11 2 11 12 0 0 11 2 4 3 6 17 17 15 16 0 0 0 0 0 0 0 0 0 0
0 14 83 57 10 12 0 0 0 0 0 0 0 0 0 0 0 0 0 28 2 0 0 0 1 0 0 8 4 0 0 0 4 7 4 0 0 0 0 0 0 0 0 0 0
0 0 75 48 1 2 1 9 0 0 0 0 0 0 0 0 1 3 5 26 3 23 9 0 0 0 0 4 24 15 27 1 0 5 8 0 0 0 0 0 0 0 0 0 0
0 0 69 25 4 0 18 12 0 0 0 0 0 6 0 2 12 1 7 10 3 9 0 0 0 0 0 14 2 9 6 0 0 0 0 0 0 0 0 0 0 0 0 0 0
0 0 0 24 0 0 27 0 0 0 0 0 0 2 0 1 3 9 5 6 7 4 2 0 0 0 0 8 1 6 9 0 0 0 0 0 0 0 0 0 0 0 0 0 0
32 19 0 0 0 1 9 0 0 0 0 0 8 0 5 3 0 4 2 0 7 0 2 0 1 0 0 0 1 3 10 2 0 0 0 0 0 0 0 0 0 0 0 0 0
7 1 2 19 6 7 0 0 0 0 0 0 0 4 1 1 16 0 0 0 0 3 34 21 5 0 0 0 0 0 0 2 1 2 0 0 0 0 0 0 0 0 0 0 0
1 0 0 36 10 1 0 0 0 0 0 0 0 0 0 0 0 6 0 0 0 0 1 3 5 0 1 0 0 1 0 0 0 0 0 0 0 0 0 0 0 0 0 0 0
1 0 18 35 0 0 0 0 0 0 0 0 0 0 0 0 0 0 0 0 0 0 0 0 10 0 0 0 0 0 0 0 0 0 0 0 0 0 0 0 0 0 0 0 0
0 0 15 14 0 0 0 0 0 0 0 0 0 0 0 0 0 1 1 0 0 0 1 4 12 4 0 0 0 0 1 1 0 0 0 0 0 0 0 0 0 0 0 0 0
0 0 1 3 0 0 0 0 0 0 0 0 0 0 0 0 0 0 0 0 0 7 4 12 7 3 0 0 0 0 2 0 0 0 0 0 0 0 0 0 0 0 0 0 0
0 0 0 0 0 0 0 0 0 0 0 0 0 0 0 0 0 0 0 0 0 0 45 13 0 0 0 0 0 0 0 0 0 0 0 0 0 0 0 0 0 0 0 0 0
0 0 0 0 0 0 0 0 0 0 0 0 0 0 0 0 0 0 0 0 0 0 0 0 0 0 0 0 0 0 0 0 0 0 0 0 0 0 0 0 0 0 0 0 0
2 1 0 0 0 0 0 0 0 0 0 0 0 0 0 0 0 0 0 0 0 0 0 0 1 3 0 0 0 0 0 0 0 0 0 0 0 0 0 0 0 0 0 0 0
CIN
0 0 0 0 -3 -2 -2 -2 -3 0 0 0 0 0 0 0 0 -3 -2 0 0 0 0 0 0 0 0 0 0 0 0 0 0 0 0 0 0 0 0 0 0 0 0 0 0
0 0 0 0 -1 -3 -2 -2 -4 0 0 0 0 0 0 0 0 0 0 0 0 0 0 0 0 -153 0 0 0 0 0 0 0 0 0 0 0 0 0 0 0 0 0 0 0
0 0 0 0 -1 -3 0 -3 -5 -4 0 0 0 0 0 0 0 0 0 0 0 0 0 0 0 0 0 0 0 0 0 0 0 0 0 0 0 0 0 0 0 0 0 0 0
0 0 0 0 -2 -3 -3 -2 -5 -3 0 0 0 0 0 -4 0 0 0 0 0 0 0 0 0 0 -3 0 0 0 0 0 0 0 0 0 0 0 0 0 0 0 0 0 0
-11 0 0 -1 0 -2 -3 -6 -4 -5 0 0 0 0 -1 0 0 0 0 -4 -5 0 0 0 0 0 0 0 0 0 0 0 0 0 0 0 0 0 0 0 0 0 0 0 0
-10 -12 -6 -10 0 0 -2 -4 -4 -5 -6 0 0 -2 0 0 0 0 0 -4 -15 0 0 0 -10 0 -7 -10 -13 -2 0 0 0 0 0 0 0 0 0 0 0 0 0 0 0
-5 -16 -14 -3 -7 0 0 -4 -1 -3 -7 0 0 0 0 0 0 0 0 -37 -13 0 -4 -19 -13 -7 -27 -21 0 -38 -16 -26 0 0 0 0 0 0 0 0 0 0 0 0 0
-1 -10 -18 -13 -7 -7 0 0 -1 -2 -12 -8 0 -1 0 0 0 0 0 -26 -21 -40 -29 -39 -30 -8 -12 0 -2 -17 -21 -1 0 0 0 0 0 0 0 0 0 0 0 0 0
-1 -13 -10 -19 -12 -4 0 0 -2 -3 -4 -7 -2 -1 0 -3 0 0 0 0 -34 -39 -31 -15 -18 -3 -16 -2 -1 -14 0 0 -1 0 0 0 0 0 0 0 0 0 0 0 0
0 -12 -11 -13 -23 -7 0 -4 -4 -2 -2 -4 -5 -1 0 0 0 0 0 -7 -11 -9 0 -2 0 -2 -2 0 -1 0 0 0 -7 0 0 0 0 0 0 0 0 0 0 0 0
0 -16 -12 -8 -25 -11 -12 -1 0 0 0 0 0 0 0 0 -6 0 -9 0 -10 -3 0 -7 0 0 -1 0 0 0 0 0 0 0 0 0 0 0 0 0 0 0 0 0 0
0 -4 -18 -11 -11 -9 -14 0 0 0 0 0 0 -1 0 0 0 0 -5 -1 0 -1 -12 -2 -1 0 0 -3 -3 -6 0 -1 -8 -11 0 0 0 0 0 0 0 0 0 0 0
-31 -2 -6 -20 -12 -6 0 0 0 0 0 0 0 0 0 0 0 0 0 -1 -2 -4 -6 -2 -7 -2 -2 -1 -4 -11 0 -1 -10 -16 0 0 0 0 0 0 0 0 0 0 0
0 0 -11 0 0 -5 0 0 0 0 0 0 0 0 0 -6 0 0 0 -3 -1 0 -7 0 0 0 -2 0 0 0 0 0 -1 -3 -2 -3 0 0 0 0 0 0 0 0 0
0 -2 -1 -1 -2 0 0 -1 0 0 0 0 0 0 0 0 0 0 0 -2 -1 -1 0 0 0 -2 0 0 -6 0 -2 -1 -5 0 -1 -2 0 0 0 0 0 0 0 0 0
0 0 -26 0 -2 -1 -5 -21 0 0 0 0 0 0 0 0 -1 0 0 -5 -11 -2 -11 0 0 0 0 -2 -22 -15 -6 -15 -5 -1 -1 -2 0 0 0 0 0 0 0 0 0
0 0 -27 -2 -1 0 -26 -8 0 0 0 0 0 0 0 0 -1 -1 0 0 -1 -1 0 0 0 0 0 0 -16 -25 -45 -2 0 0 0 0 0 0 0 0 0 0 0 0 0
0 0 0 -2 0 0 -4 0 0 0 0 0 0 -2 0 -1 -2 0 -2 0 -2 -1 -1 0 0 0 0 -6 -2 0 0 -3 -7 0 0 0 0 0 0 0 0 0 0 0 0
0 -1 -1 0 -1 -5 -1 0 0 0 0 0 0 -2 0 -1 -1 -1 -1 0 -2 0 -1 0 -2 0 0 0 -4 -5 -2 -1 0 0 -1 0 0 0 0 0 0 0 0 0 0
-3 -1 0 0 -6 -1 -1 0 0 0 0 0 0 0 -1 0 -1 0 0 0 0 -9 -1 -5 -8 0 0 0 0 0 0 -1 -8 -5 0 0 0 0 0 0 0 0 0 0 0
0 0 0 0 -1 0 0 0 0 0 0 0 0 0 0 0 0 -1 0 -1 0 0 -4 -7 -4 0 0 0 0 0 0 0 0 0 0 0 0 0 0 0 0 0 0 0 0
0 0 0 0 0 0 0 0 0 0 0 0 0 0 0 0 0 0 -13 0 0 0 0 0 -4 0 0 0 0 -5 0 0 0 0 0 0 0 0 0 0 0 0 0 0 0
0 0 0 0 0 0 0 0 0 0 0 0 0 0 0 0 0 0 -1 0 0 0 0 -1 -6 -16 0 0 0 0 0 0 0 0 0 0 0 0 0 0 0 0 0 0 0
0 0 0 0 0 0 0 0 0 0 0 0 0 0 0 0 0 0 0 0 0 -21 -12 -11 -2 -5 0 0 0 0 0 0 0 -1 0 0 0 0 0 0 0 0 0 0 0
0 0 0 0 0 0 0 0 0 0 0 0 0 0 0 0 0 0 0 0 0 0 -4 -16 0 0 0 0 0 0 0 0 0 0 -2 0 0 0 0 0 0 0 0 0 0
0 0 0 0 0 0 0 0 0 0 0 0 0 0 0 0 0 0 0 0 0 0 0 -13 0 0 0 0 0 0 0 0 0 0 0 0 0 0 0 0 0 0 0 0 0
0 0 0 0 0 0 0 0 0 0 0 0 0 0 0 0 0 0 0 0 0 0 0 0 -11 -15 0 0 0 0 0 0 0 0 0 0 0 0 0 0 0 0 0 0 0
Wind_Speed
26 27 28 28 27 25 25 25 23 23 22 21 22 23 23 23 22 24 31 26 24 19 18 21 23 23 23 24 23 23 31 32 28 25 24 24 25 22 18 15 17 16 8 10 8
28 27 27 28 27 26 25 24 22 23 22 22 22 22 22 21 27 34 25 24 22 20 24 25 26 24 28 28 26 24 31 30 27 29 30 31 29 28 21 18 21 17 17 2 8
30 29 28 28 28 27 27 25 23 22 22 22 21 21 19 19 29 32 26 27 22 19 23 25 24 26 33 31 29 28 33 30 30 30 31 33 32 26 24 22 21 14 10 6 8
30 30 29 28 27 27 27 25 23 23 22 22 21 19 18 21 29 22 23 21 21 18 18 21 25 31 34 37 32 36 34 35 36 33 34 36 35 31 26 26 23 22 13 9 11
31 30 29 28 27 26 26 25 24 23 22 21 20 19 20 27 29 19 20 17 21 19 22 24 30 32 39 36 35 41 37 32 37 36 40 39 40 38 36 31 22 18 16 13 13
34 31 30 28 27 25 24 25 26 24 23 22 21 20 25 33 22 25 22 17 17 20 22 23 28 31 35 38 38 36 41 40 39 38 35 43 45 35 36 30 23 15 18 21 18
35 33 31 30 27 25 24 24 25 23 23 23 21 22 29 32 19 20 20 20 17 19 24 26 27 30 30 37 37 39 43 42 42 37 37 33 50 42 38 30 25 24 23 22 22
35 34 32 30 28 26 24 24 22 22 22 22 20 24 35 24 29 24 20 22 19 20 23 22 26 30 34 29 31 38 40 47 40 36 35 31 57 45 38 33 31 28 30 29 26
38 35 33 30 28 26 23 22 21 21 21 19 24 27 35 22 26 26 19 20 19 21 23 23 24 32 32 43 47 43 55 49 42 31 32 36 50 48 38 39 41 29 34 36 41
39 37 34 31 28 25 22 20 18 18 19 20 24 30 33 31 24 21 20 18 21 21 25 27 27 34 38 46 63 56 57 49 48 38 38 40 51 47 49 41 45 40 42 47 39
43 39 36 32 29 25 23 21 26 29 30 33 31 31 27 23 17 21 18 17 21 25 31 29 34 41 39 46 50 53 52 55 48 40 42 49 54 52 50 49 48 46 43 44 38
47 43 39 34 30 26 25 33 31 25 32 33 29 30 23 20 26 22 17 23 26 36 29 32 48 39 35 40 51 56 49 48 40 38 41 45 53 53 51 55 50 48 43 45 52
49 47 43 39 33 29 31 29 22 18 28 36 34 32 29 27 27 24 21 24 28 31 34 41 29 37 43 44 49 54 65 52 48 38 41 41 53 54 48 49 57 56 49 40 45
43 43 47 42 37 33 34 24 20 19 32 35 37 39 33 25 37 27 22 24 30 34 33 40 45 47 37 48 45 57 41 49 49 43 52 36 59 52 46 48 51 56 51 45 39
47 36 44 48 40 41 32 22 20 16 45 32 33 24 31 37 28 33 21 28 31 30 30 35 34 41 50 48 38 51 41 42 45 46 47 47 51 53 40 53 53 53 50 49 45
50 39 49 49 37 35 28 22 18 31 48 31 25 32 32 36 34 25 28 25 27 30 38 41 33 34 47 41 37 38 36 34 34 40 56 53 52 62 52 49 49 49 50 54 37
52 42 49 47 43 38 32 28 31 46 30 34 31 29 33 36 34 31 30 33 32 35 43 36 40 40 34 38 40 38 35 50 51 51 60 43 48 69 37 38 48 55 56 44 33
53 47 40 46 38 43 36 33 44 43 37 27 30 24 34 29 39 33 32 36 35 33 33 41 45 37 34 39 43 50 44 48 49 47 53 42 58 57 42 44 49 44 47 51 39
49 47 41 46 46 47 45 44 44 37 33 26 23 28 32 31 29 35 37 37 35 33 36 36 42 30 33 31 33 38 50 44 50 46 48 49 56 51 46 44 45 47 47 43 36
45 49 47 42 45 50 46 45 34 27 26 25 32 30 33 32 29 29 30 35 37 29 30 34 38 34 31 30 32 36 33 42 43 58 64 60 58 59 41 43 44 45 46 43 32
44 46 40 47 47 51 52 43 33 25 26 28 32 31 31 30 30 30 28 28 23 26 29 32 35 33 30 37 35 34 36 36 36 41 55 60 57 40 42 42 43 44 39 34 24
41 53 38 45 55 53 50 36 29 27 25 26 27 28 29 27 27 30 32 26 21 19 25 30 35 45 41 34 36 40 45 41 47 47 48 50 62 36 33 33 40 43 42 30 24
43 43 43 50 59 53 44 34 33 29 28 27 27 28 26 27 29 28 28 26 25 21 25 24 35 42 40 40 37 41 42 41 44 43 61 60 63 38 35 34 33 40 38 32 31
38 50 43 50 48 51 48 39 34 27 29 26 23 22 23 25 24 25 25 24 24 26 25 22 37 46 57 46 38 47 47 46 46 56 66 68 66 48 36 33 31 30 30 29 28
34 42 37 55 49 50 47 37 33 32 27 25 27 28 26 27 27 27 23 23 25 23 26 28 32 35 51 43 39 46 44 43 51 60 58 76 65 58 47 43 35 28 30 28 27
38 35 37 45 47 49 46 45 35 29 28 32 27 23 24 26 26 29 26 28 30 24 27 27 41 37 48 50 45 46 41 38 41 57 60 60 62 47 43 38 34 33 28 26 23
35 26 38 47 49 49 50 40 36 30 28 25 19 22 26 24 20 20 21 23 24 26 27 30 31 32 39 34 39 54 52 41 45 51 59 59 62 39 35 37 36 30 28 24 21
Wind_Direction
265 265 265 265 265 263 264 265 266 269 273 276 278 279 280 282 279 272 264 269 266 271 280 276 275 273 276 274 273 284 269 263 266 270 274 286 287 287 288 278 282 280 301 299 145
262 262 262 262 262 261 262 261 263 267 271 274 276 278 280 283 273 267 273 271 270 264 267 266 265 267 265 264 266 269 265 264 273 270 274 281 287 280 280 268 271 275 277 164 154
258 259 259 259 259 259 260 258 259 263 268 271 274 277 279 281 274 272 271 265 265 263 265 265 265 264 260 261 260 257 261 267 268 278 273 277 280 283 274 266 266 262 263 191 188
254 255 256 255 256 256 257 256 257 259 264 268 271 275 276 272 269 282 291 262 260 257 261 259 258 257 258 255 258 256 260 264 267 273 272 271 276 279 272 270 269 262 249 204 196
250 251 251 252 252 253 253 253 255 256 259 263 267 269 268 265 264 286 302 276 257 249 253 255 255 256 254 257 255 255 261 264 262 271 267 269 265 268 268 267 273 260 248 232 221
247 247 248 248 248 249 250 252 253 254 256 260 262 265 265 262 279 280 285 287 260 252 253 254 259 258 260 257 255 260 257 260 260 265 271 265 260 273 265 268 266 255 250 246 239
242 244 244 244 244 245 246 250 251 249 254 257 258 260 260 260 278 289 277 277 261 256 259 256 260 256 258 258 259 259 256 257 258 260 266 271 256 258 261 272 263 258 254 247 245
237 239 239 240 241 241 243 247 247 247 252 253 254 260 260 269 264 274 282 271 271 269 264 265 261 258 257 259 261 252 256 252 257 255 264 264 249 256 262 267 263 259 254 251 247
234 233 234 234 236 237 238 242 242 247 250 249 252 255 258 268 260 260 271 270 268 267 266 267 264 256 255 250 251 251 247 250 257 255 260 260 256 254 262 261 255 259 253 248 241
230 229 229 229 228 230 231 232 237 243 244 249 256 253 255 256 261 260 264 262 266 264 261 261 258 255 251 243 240 244 245 250 251 252 257 259 255 257 253 260 251 253 245 237 246
228 224 224 221 220 220 219 225 232 243 238 243 247 252 261 255 268 254 258 259 262 260 253 258 259 247 249 245 250 251 250 250 251 255 258 259 255 255 253 256 252 250 251 246 250
228 222 217 215 212 211 216 230 227 250 242 246 256 248 256 253 251 255 246 252 253 251 256 257 251 253 260 255 249 247 249 250 258 255 259 264 258 257 255 252 252 251 254 250 240
232 218 213 207 204 206 217 227 221 239 251 246 245 245 247 250 250 248 245 250 257 252 251 252 263 256 256 256 250 251 248 250 254 259 260 266 261 257 258 257 248 248 251 256 247
233 221 205 203 204 207 217 219 218 249 250 250 241 248 244 247 251 252 246 253 257 256 255 259 256 256 258 253 252 248 256 252 254 254 251 263 255 255 259 258 255 247 250 252 252
227 238 198 199 202 206 202 207 213 243 245 251 240 250 237 239 249 247 247 252 256 255 255 259 262 254 251 253 255 250 258 257 255 258 258 257 256 256 260 251 253 249 250 251 251
229 241 199 198 204 203 186 187 200 235 242 245 239 233 232 236 244 248 240 254 263 260 259 261 269 265 254 252 256 254 255 258 258 259 250 249 251 250 254 257 257 250 252 250 248
223 225 209 199 197 185 181 188 224 234 246 241 238 231 230 233 237 238 236 239 248 252 255 265 261 260 262 249 249 250 246 248 252 250 249 252 253 238 264 264 255 252 246 254 235
219 223 233 204 185 177 190 202 231 235 235 247 234 226 234 229 236 237 239 243 245 254 261 255 257 254 253 250 249 244 246 244 244 245 248 252 247 250 261 259 255 262 258 252 252
216 220 223 205 186 181 188 212 230 233 229 230 220 223 236 232 241 236 244 247 249 245 256 258 258 260 255 255 248 249 243 249 253 261 255 252 252 259 263 262 259 260 259 262 250
214 216 224 206 189 186 196 222 230 230 217 215 232 231 232 226 236 230 240 254 250 249 250 263 261 257 255 256 253 252 241 244 247 248 245 248 249 247 263 259 259 258 248 251 258
213 213 224 193 188 194 204 222 227 224 211 222 232 233 234 230 234 237 246 261 245 249 244 260 258 258 253 247 242 244 245 246 252 251 245 246 248 260 265 263 256 250 252 263 262
216 213 215 191 196 204 207 218 220 213 225 233 235 236 229 226 236 242 248 257 260 248 246 252 260 251 251 259 256 250 248 246 247 247 252 252 247 260 273 272 258 249 251 259 259
211 210 208 202 204 201 208 220 218 215 219 228 234 238 234 233 243 246 254 262 267 250 261 249 255 251 251 256 255 249 247 246 251 255 248 250 247 262 272 274 272 258 259 257 259
211 206 209 211 213 197 203 210 214 221 226 231 232 232 229 236 254 248 257 265 267 263 258 262 256 251 246 255 254 249 246 247 247 249 248 246 246 253 265 273 277 270 262 260 260
219 215 215 204 206 202 204 206 205 213 228 226 235 232 233 244 247 253 257 264 271 272 264 262 268 261 253 260 256 252 250 248 247 250 248 244 250 251 262 268 271 270 262 261 259
214 214 215 201 194 198 204 210 206 218 221 223 229 224 236 247 250 255 259 264 267 274 268 264 262 269 265 255 255 250 249 250 250 250 250 253 252 258 259 265 263 264 255 257 258
219 230 197 196 197 201 208 209 209 215 235 229 224 235 240 246 259 269 271 276 276 270 269 266 265 269 267 262 251 248 246 249 254 252 248 249 248 259 258 258 260 255 246 247 252